Ketchikan, AK

4:51 PM AKDT on September 24, 2018 (GMT -0800)
Ketchikan International

Weather History for PAKT - July, 2018

Change the Weather History Date:

Sunday, July 29, 2018

  Actual Average Record
Temperature  
Mean Temperature 73 °F -  
Max Temperature 81 °F 66 °F 82 °F (1971)
Min Temperature 66 °F 52 °F 42 °F (1999)
Cooling Degree Days 8    
Growing Degree Days 23 (Base 50)    
Moisture  
Dew Point 54 °F    
Average Humidity 54    
Maximum Humidity 68    
Minimum Humidity 37    
Precipitation  
Precipitation 0.00 in - - ()
Sea Level Pressure  
Sea Level Pressure 30.12 in    
Wind  
Wind Speed 11 mph (NW)    
Max Wind Speed 15 mph    
Max Gust Speed 20 mph    
Visibility 10 miles    
Events      
Averages and records for this station are not official NWS values.
T = Trace of Precipitation, MM = Missing Value Source: NWS Daily Summary

Daily Weather History Graph

Daily Weather History Graph

Search for Another Location

Airport or City:

Astronomy

Jul. 29, 2018 Rise Set
Actual Time 4:48 AM AKDT 8:56 PM AKDT
Civil Twilight 4:00 AM AKDT 9:44 PM AKDT
Nautical Twilight 2:48 AM AKDT 10:55 PM AKDT
Astronomical Twilight 1:25 AM AKDT 12:20 AM AKDT
Moon 9:56 PM AKDT (7/29) 6:42 AM AKDT (7/29)
Length of Visible Light 17h 43m
Length of Day
16h 07m
Waning Gibbous, 96% of the Moon is Illuminated
Jul 29
Waning Gibbous
Aug 4
Last Quarter
Aug 11
New
Aug 17
First Quarter
Aug 26
Full

Hourly Weather History & Observations

Time (AKDT) Temp. Dew Point Humidity Pressure Visibility Wind Dir Wind Speed Gust Speed Precip Events Conditions
12:53 AM 69.1 °F 55.0 °F 61% 30.12 in 10.0 mi NNW 15.0 mph - N/A   Clear
1:53 AM 68.0 °F 55.0 °F 63% 30.12 in 10.0 mi NNW 11.5 mph - N/A   Clear
2:53 AM 66.9 °F 54.0 °F 63% 30.12 in 10.0 mi WNW 8.1 mph - N/A   Clear
3:53 AM 66.9 °F 54.0 °F 63% 30.13 in 10.0 mi WNW 8.1 mph - N/A   Clear
4:53 AM 66.9 °F 53.1 °F 61% 30.13 in 10.0 mi NW 5.8 mph - N/A   Clear
5:53 AM 66.0 °F 52.0 °F 60% 30.13 in 10.0 mi WNW 8.1 mph - N/A   Clear
5:59 AM 66.0 °F 52.0 °F 60% 30.13 in 10.0 mi NW 9.2 mph - N/A   Clear
6:53 AM 69.8 °F 53.6 °F 56% 30.13 in 10.0 mi WNW 8.1 mph - N/A   Clear
7:53 AM 69.8 °F 51.8 °F 53% 30.13 in 10.0 mi NW 10.4 mph - N/A   Clear
8:53 AM 72.0 °F 52.0 °F 49% 30.14 in 10.0 mi NNW 12.7 mph - N/A   Clear
9:53 AM 73.9 °F 52.0 °F 46% 30.14 in 10.0 mi NW 12.7 mph 19.6 mph N/A   Clear
10:53 AM 75.2 °F 51.8 °F 44% 30.14 in 10.0 mi NNW 11.5 mph 17.3 mph N/A   Clear
11:53 AM 77.0 °F 51.8 °F 41% 30.13 in 10.0 mi NW 13.8 mph - N/A   Clear
12:53 PM 79.0 °F 51.1 °F 38% 30.13 in 10.0 mi NW 13.8 mph - N/A   Clear
1:53 PM 80.6 °F 51.8 °F 37% 30.12 in 10.0 mi NNW 15.0 mph - N/A   Clear
2:53 PM 75.2 °F 55.4 °F 50% 30.12 in 10.0 mi NW 10.4 mph - N/A   Clear
3:53 PM 78.8 °F 53.6 °F 42% 30.11 in 10.0 mi NNW 10.4 mph - N/A   Clear
4:53 PM 75.2 °F 55.4 °F 50% 30.10 in 10.0 mi NW 10.4 mph - N/A   Clear
5:53 PM 75.2 °F 57.2 °F 53% 30.09 in 10.0 mi NW 10.4 mph - N/A   Clear
6:53 PM 75.2 °F 57.2 °F 53% 30.08 in 10.0 mi NW 9.2 mph - N/A   Clear
7:53 PM 73.4 °F 57.2 °F 57% 30.08 in 10.0 mi NNW 8.1 mph - N/A   Clear
8:53 PM 69.8 °F 57.2 °F 64% 30.09 in 10.0 mi NNW 6.9 mph - N/A   Clear
9:53 PM 69.1 °F 55.9 °F 63% 30.09 in 10.0 mi NNW 6.9 mph - N/A   Clear
10:53 PM 69.1 °F 57.0 °F 65% 30.10 in 10.0 mi NNW 8.1 mph - N/A   Clear
11:53 PM 68.0 °F 57.0 °F 68% 30.10 in 10.0 mi NNW 6.9 mph - N/A   Clear